Date String (YYYY-MM-DD hh:mm:ss) UTC,Instrument flags,absolute air pressure of the measurement (hPa),sample flow rate (lpm),inlet stack bypass flow (lpm),air temperature of the measurement (°C),ambient temperature measured by the external sensor (°C),aerosol sample conditioner tube jacket temperature (°C),OPC LED temperature (°C),internal box temperature (°C),relative humidity of the measurement (%),span deviation,mass concentration of particles derived from Lorenz-Mie calculation of OPC scattering (μg/m³),mass concentration of particles derived from Lorenz-Mie calculation of OPC scattering (μg/m³),mass concentration of particles derived from Lorenz-Mie calculation of OPC scattering (μg/m³)
DateTimeUTC,F1_M11,P_M11,Q1_M11,Q2_M11,T1_M11,T2_M11,T3_M11,T4_M11,T5_M11,U1_M11,ZSPAN_M11,X2_M11,X0_M11,X1_M11
2024-03-26 08:00:00,SystemResetWarning,0820.1,4.98,000.00,018.3,017.4,000.0,027.1,020.1,14.3,0000.0,0007.71,0010.74,0007.43
2024-03-26 08:01:00,SystemResetWarning,0820.1,5.01,000.00,018.4,017.8,000.0,027.2,020.3,14.3,0000.0,0007.75,0010.81,0007.47
2024-03-26 08:02:00,SystemResetWarning,0820.2,5.01,000.00,018.6,018.7,000.0,027.3,020.9,14.1,0000.0,0007.80,0010.70,0007.50
2024-03-26 08:03:00,SystemResetWarning,0820.2,4.98,000.00,018.8,019.1,000.0,027.3,021.1,13.9,0000.0,0007.83,0010.53,0007.53
2024-03-26 08:04:00,SystemResetWarning,0820.1,5.00,000.00,018.8,018.9,000.0,027.3,021.0,13.9,0000.0,0007.87,0010.55,0007.57
2024-03-26 08:05:00,SystemResetWarning,0820.1,5.01,000.00,018.8,018.7,000.0,027.2,020.8,14.0,0000.0,0007.89,0010.51,0007.61
2024-03-26 08:06:00,SystemResetWarning,0820.0,5.01,000.00,018.8,018.6,000.0,027.2,020.7,14.0,0000.0,0007.95,0010.57,0007.68
2024-03-26 08:07:00,SystemResetWarning,0820.0,5.00,000.00,018.8,018.4,000.0,027.2,020.6,14.1,0000.0,0008.01,0010.40,0007.73
2024-03-26 08:08:00,SystemResetWarning,0820.0,4.99,000.00,018.8,018.2,000.0,027.2,020.5,14.2,0000.0,0008.07,0010.42,0007.79
2024-03-26 08:09:00,SystemResetWarning,0820.1,5.00,000.00,018.7,018.1,000.0,027.2,020.5,14.3,0000.0,0008.16,0010.78,0007.87
2024-03-26 08:10:00,SystemResetWarning,0820.0,4.99,000.00,018.7,018.0,000.0,027.2,020.4,14.3,0000.0,0008.19,0010.77,0007.91
2024-03-26 08:11:00,SystemResetWarning,0820.0,5.01,000.00,018.6,017.9,000.0,027.2,020.4,14.4,0000.2,0008.21,0010.70,0007.97
2024-03-26 08:12:00,SystemResetWarning,0820.2,5.00,000.00,018.6,017.8,000.0,027.2,020.3,14.4,0001.6,0008.29,0010.74,0008.04
2024-03-26 08:13:00,SystemResetWarning,0820.0,5.00,000.00,018.6,017.7,000.0,027.2,020.3,14.4,0001.5,0008.34,0010.76,0008.09
2024-03-26 08:14:00,SystemResetWarning,0820.1,5.00,000.00,018.5,017.6,000.0,027.2,020.2,14.5,0001.9,0008.39,0010.82,0008.14
2024-03-26 08:15:00,SystemResetWarning,0820.0,5.00,000.00,018.5,017.6,000.0,027.2,020.2,14.5,0001.3,0008.44,0010.94,0008.18
2024-03-26 08:16:00,SystemResetWarning,0820.1,5.00,000.00,018.5,017.5,000.0,027.2,020.2,14.5,0000.7,0008.47,0011.01,0008.22
2024-03-26 08:17:00,SystemResetWarning,0819.9,5.00,000.00,018.4,017.5,000.0,027.2,020.1,14.5,0000.4,0008.46,0010.97,0008.23
2024-03-26 08:18:00,SystemResetWarning,0820.0,5.00,000.00,018.4,017.4,000.0,027.2,020.1,14.5,0000.7,0008.46,0010.95,0008.23
2024-03-26 08:19:00,SystemResetWarning,0820.1,5.01,000.00,018.4,017.4,000.0,027.1,020.0,14.5,0000.4,0008.47,0011.07,0008.21
2024-03-26 08:20:00,SystemResetWarning,0819.9,5.00,000.00,018.3,017.4,000.0,027.1,020.1,14.5,0000.0,0008.43,0010.73,0008.19
2024-03-26 08:21:00,SystemResetWarning,0820.2,5.00,000.00,018.4,017.9,000.0,027.2,020.4,14.5,0000.0,0008.41,0010.56,0008.16
2024-03-26 08:22:00,SystemResetWarning,0820.2,5.00,000.00,018.6,018.8,000.0,027.3,020.9,14.3,0000.0,0008.41,0010.57,0008.16
2024-03-26 08:23:00,SystemResetWarning,0819.9,4.99,000.00,018.8,019.0,000.0,027.3,021.0,14.2,0000.0,0008.39,0010.56,0008.15
2024-03-26 08:24:00,SystemResetWarning,0820.0,4.99,000.00,018.8,018.8,000.0,027.3,020.9,14.2,0000.0,0008.37,0010.59,0008.13
2024-03-26 08:25:00,SystemResetWarning,0820.1,5.01,000.00,018.8,018.6,000.0,027.3,020.7,14.1,0000.0,0008.36,0010.56,0008.13
2024-03-26 08:26:00,SystemResetWarning,0820.1,5.00,000.00,018.8,018.4,000.0,027.2,020.6,14.1,0000.0,0008.35,0010.67,0008.12
2024-03-26 08:27:00,SystemResetWarning,0820.0,5.00,000.00,018.7,018.2,000.0,027.2,020.5,14.2,0000.0,0008.37,0011.41,0008.11
2024-03-26 08:28:00,SystemResetWarning,0820.0,4.99,000.00,018.7,018.1,000.0,027.2,020.5,14.2,0000.0,0008.38,0011.42,0008.11
2024-03-26 08:29:00,SystemResetWarning,0820.0,5.00,000.00,018.7,018.0,000.0,027.2,020.4,14.2,0000.0,0008.36,0011.35,0008.11
2024-03-26 08:30:00,SystemResetWarning,0819.9,5.01,000.00,018.6,017.9,000.0,027.2,020.4,14.2,0000.0,0008.37,0011.30,0008.12
2024-03-26 08:31:00,SystemResetWarning,0820.0,5.01,000.00,018.6,017.8,000.0,027.2,020.3,14.3,0000.0,0008.37,0011.29,0008.12
2024-03-26 08:32:00,SystemResetWarning,0819.9,5.01,000.00,018.6,017.7,000.0,027.2,020.3,14.3,0000.0,0008.39,0011.32,0008.14
2024-03-26 08:33:00,SystemResetWarning,0820.0,5.00,000.00,018.5,017.6,000.0,027.2,020.2,14.3,0000.0,0008.39,0011.33,0008.14
2024-03-26 08:34:00,SystemResetWarning,0820.0,4.99,000.00,018.5,017.6,000.0,027.2,020.2,14.4,0000.0,0008.36,0011.29,0008.13
2024-03-26 08:35:00,SystemResetWarning,0820.2,4.99,000.00,018.5,017.5,000.0,027.2,020.2,14.4,0000.0,0008.36,0011.23,0008.14
2024-03-26 08:36:00,SystemResetWarning,0820.0,4.99,000.00,018.4,017.5,000.0,027.2,020.1,14.4,0000.0,0008.36,0011.53,0008.14
2024-03-26 08:37:00,SystemResetWarning,0819.9,5.00,000.00,018.4,017.4,000.0,027.1,020.1,14.5,0000.0,0008.33,0011.92,0008.13
2024-03-26 08:38:00,SystemResetWarning,0819.8,5.01,000.00,018.4,017.4,000.0,027.1,020.1,14.5,0000.0,0008.33,0011.70,0008.12
2024-03-26 08:39:00,SystemResetWarning,0819.8,5.01,000.00,018.4,017.9,000.0,027.2,020.4,14.5,0000.0,0008.33,0011.70,0008.12
2024-03-26 08:40:00,SystemResetWarning,0820.0,5.00,000.00,018.6,018.8,000.0,027.3,020.9,14.3,0000.0,0008.36,0012.21,0008.15
2024-03-26 08:41:00,SystemResetWarning,0820.2,5.00,000.00,018.8,019.0,000.0,027.3,021.1,14.2,0000.0,0008.38,0012.97,0008.17
2024-03-26 08:42:00,SystemResetWarning,0819.9,4.99,000.00,018.8,018.8,000.0,027.3,020.9,14.2,0000.0,0008.43,0013.19,0008.21
2024-03-26 08:43:00,SystemResetWarning,0819.8,4.99,000.00,018.8,018.6,000.0,027.3,020.8,14.2,0000.0,0008.47,0013.20,0008.25
2024-03-26 08:44:00,SystemResetWarning,0820.3,5.01,000.00,018.8,018.4,000.0,027.3,020.6,14.2,0000.0,0008.50,0013.28,0008.29
2024-03-26 08:45:00,SystemResetWarning,0819.9,5.00,000.00,018.7,018.2,000.0,027.3,020.5,14.2,0000.0,0008.57,0013.40,0008.34
2024-03-26 08:46:00,SystemResetWarning,0819.8,4.99,000.00,018.7,018.1,000.0,027.2,020.4,14.2,0000.0,0008.62,0013.48,0008.37
2024-03-26 08:47:00,SystemResetWarning,0819.8,4.99,000.00,018.6,017.9,000.0,027.2,020.3,14.3,0000.0,0008.66,0013.46,0008.40
2024-03-26 08:48:00,SystemResetWarning,0819.7,5.01,000.00,018.6,017.8,000.0,027.2,020.3,14.3,0000.0,0008.71,0013.02,0008.44
2024-03-26 08:49:00,SystemResetWarning,0819.7,5.01,000.00,018.5,017.7,000.0,027.2,020.2,14.4,0000.0,0008.77,0012.72,0008.50
2024-03-26 08:50:00,SystemResetWarning,0820.0,5.00,000.00,018.5,017.6,000.0,027.2,020.2,14.4,0000.0,0008.82,0013.04,0008.55
2024-03-26 08:51:00,SystemResetWarning,0819.7,5.01,000.00,018.4,017.5,000.0,027.2,020.1,14.5,0000.0,0008.84,0012.75,0008.57
2024-03-26 08:52:00,SystemResetWarning,0819.7,4.99,000.00,018.4,017.5,000.0,027.2,020.1,14.5,0000.0,0008.83,0012.03,0008.59
2024-03-26 08:53:00,SystemResetWarning,0819.7,4.99,000.00,018.4,017.4,000.0,027.2,020.1,14.5,0000.0,0008.82,0011.92,0008.57
2024-03-26 08:54:00,SystemResetWarning,0819.7,5.00,000.00,018.4,018.0,000.0,027.3,020.4,14.5,0000.0,0008.83,0012.59,0008.57
2024-03-26 08:55:00,SystemResetWarning,0819.8,5.02,000.00,018.7,018.9,000.0,027.3,021.0,14.3,0000.0,0008.81,0012.66,0008.55
2024-03-26 08:56:00,SystemResetWarning,0819.8,4.98,000.00,018.8,019.0,000.0,027.3,021.1,14.2,0000.0,0008.78,0013.00,0008.54
2024-03-26 08:57:00,SystemResetWarning,0819.8,5.00,000.00,018.8,018.8,000.0,027.3,020.9,14.1,0000.0,0008.78,0013.02,0008.55
2024-03-26 08:58:00,SystemResetWarning,0819.8,5.01,000.00,018.8,018.6,000.0,027.3,020.7,14.1,0000.0,0008.80,0013.30,0008.56
2024-03-26 08:59:00,SystemResetWarning,0819.8,5.00,000.00,018.8,018.4,000.0,027.3,020.6,14.2,0000.0,0008.77,0013.47,0008.55
